KUIPER-00044

Last updated on Thu Jul 03 2025 00:02:08 GMT+0000 (Coordinated Universal Time)

1 64505U 25134F 25183.58335648 -.00001249 00000+0 -26017-4 0 9993 2 64505 51.8641 287.0501 0011678 150.7531 264.5463 15.33830212 2173
UTC large
Height (km)
Speed (km/s)
/
Latitude / Longitude
Inclination (degrees)
Orbital Period (minutes)
Azimuth
Elevation
Range (km)
Doppler Factor

Next 0 passes for location: London (51.5072 / 0.1276)

Sorry there are no passes over London.